Temperature
15 15 16 16 16 15 15 15 15 15 15 15 15 15 14 14 14 14 14 14 14 14 14 14 14 14 13 13 13 13 13 13 13 12 13 13 13 13 13 13 12 12 12
15 15 16 16 16 16 16 15 15 15 15 15 15 15 15 15 14 14 14 14 14 14 14 14 14 14 13 13 13 13 13 13 12 12 11 11 12 12 12 12 12 11 11
15 15 16 16 16 16 16 16 16 16 16 15 15 14 14 14 14 14 14 14 14 14 14 14 14 14 13 13 13 13 12 12 12 12 11 10 10 10 11 11 11 11 10
16 16 16 16 16 16 16 16 16 16 16 15 15 15 15 15 15 15 14 14 14 14 14 14 13 13 13 13 13 12 12 12 12 11 11 10 10 9 9 10 10 10 10
16 16 16 16 16 16 16 16 16 16 16 15 15 15 15 15 15 14 14 14 14 14 14 14 13 13 13 13 12 12 12 12 11 11 10 10 9 9 8 9 9 9 9
16 16 16 16 16 16 16 16 16 16 15 15 15 15 15 15 14 14 14 14 14 14 13 13 13 13 13 12 12 12 11 11 11 10 10 9 9 8 8 8 8 8 8
15 15 16 16 16 16 16 16 15 15 15 15 15 15 15 14 14 14 14 14 14 14 13 13 13 12 12 12 11 11 11 10 10 10 9 9 8 7 7 7 7 7 7
15 15 15 15 16 15 15 15 15 15 15 15 14 14 14 14 14 14 14 13 13 13 13 12 12 12 12 11 11 10 10 10 9 9 9 8 8 7 7 6 6 6 6
15 15 15 15 15 15 15 15 15 14 14 14 14 14 14 14 13 13 13 13 13 12 12 12 11 11 11 10 10 10 9 9 8 8 8 7 7 6 6 6 6 5 5
14 14 14 15 15 14 14 14 14 14 14 13 13 13 13 13 13 12 12 12 12 12 11 11 11 10 10 10 9 9 8 8 8 7 7 6 6 6 5 5 5 5 5
14 14 14 14 14 14 14 13 13 13 13 13 12 12 12 12 12 12 11 11 11 11 11 10 10 10 9 9 8 8 8 7 7 6 6 5 5 5 5 5 4 4 4
13 13 13 13 13 13 13 13 12 12 12 12 11 11 11 11 11 11 10 10 10 10 10 9 9 9 8 8 7 7 7 6 6 5 5 5 4 4 4 4 4 4 3
12 12 12 12 12 12 12 12 12 11 11 11 11 10 10 10 10 10 10 10 10 9 9 9 8 8 7 7 7 6 6 5 5 4 4 4 4 3 3 3 3 3 3
11 11 11 12 11 11 11 11 11 10 10 10 10 10 10 9 9 9 9 9 9 9 8 8 7 7 7 6 6 5 5 4 4 3 3 3 3 3 3 3 3 3 3
10 11 11 11 11 11 10 10 10 9 9 9 9 9 9 9 9 9 8 8 8 8 7 7 7 6 6 5 5 4 4 3 3 2 2 2 2 2 2 3 3 3 3
9 10 10 10 10 10 10 10 9 9 9 8 8 8 8 8 8 8 8 8 7 7 7 6 6 5 5 4 4 3 3 2 2 2 2 2 2 2 2 2 2 2 2
9 9 9 9 9 9 9 9 9 8 8 8 8 8 8 8 8 7 7 7 7 6 6 5 5 4 4 3 3 3 2 2 2 2 2 2 2 2 2 2 2 2 2
8 8 8 9 9 9 9 9 8 8 8 8 8 8 7 7 7 7 7 6 6 5 5 4 4 3 3 3 2 2 2 2 2 2 2 2 2 1 2 2 2 2 2
7 8 8 8 8 8 8 8 8 8 8 8 8 8 7 7 7 6 6 5 5 5 4 4 3 3 2 2 2 2 2 1 1 1 1 1 1 1 1 1 1 2 1
7 7 7 8 8 8 8 8 8 8 8 8 8 7 7 7 6 6 5 5 4 4 3 3 2 2 2 1 1 1 1 1 1 1 1 1 1 1 1 1 1 1 1
6 6 7 7 7 7 7 7 7 7 7 7 7 7 6 6 5 5 4 4 3 3 3 2 2 2 1 1 1 1 1 1 1 1 1 1 1 1 1 1 1 0 0
5 6 6 6 6 6 7 7 6 6 6 6 6 6 5 5 5 4 4 3 3 2 2 2 1 1 1 1 1 0 0 0 0 1 0 0 0 0 0 0 0 0 0
5 5 5 5 6 6 6 6 6 6 5 5 5 5 5 4 4 3 3 2 2 2 2 1 1 1 1 0 0 -0 -0 -0 0 0 -0 -0 -0 -0 -0 -0 -0 -0 -0
4 4 4 5 5 5 5 5 5 5 5 4 4 4 4 3 3 3 2 2 2 1 1 1 1 1 1 0 0 -0 -0 -0 -0 -0 -0 -1 -1 -0 -0 -1 -1 -1 -1
3 3 4 4 4 4 4 4 4 4 4 4 4 4 3 3 3 2 2 2 1 1 1 1 1 1 1 1 0 -0 -0 -0 -1 -1 -1 -1 -1 -1 -1 -1 -1 -1 -1
2 3 3 3 3 4 4 4 4 4 4 3 3 3 3 2 2 2 1 1 1 1 1 1 0 0 0 -0 -0 -0 -1 -1 -1 -1 -1 -1 -1 -1 -1 -1 -1 -1 -1
Wind_Speed
6 5 6 7 8 8 9 10 10 10 9 6 6 5 5 4 3 4 7 8 7 7 6 3 2 2 2 1 1 1 2 2 1 2 4 4 4 4 4 2 1 1 1
6 6 6 7 9 11 11 11 11 11 10 7 6 4 4 3 3 3 5 7 7 7 5 4 2 2 1 1 0 0 1 1 0 1 2 4 4 4 4 3 2 2 4
10 9 8 9 9 10 11 11 11 11 10 9 5 4 3 3 2 3 3 3 6 7 6 5 3 2 2 1 1 0 1 1 1 1 2 2 3 3 3 4 5 4 4
11 10 10 9 10 10 9 9 10 9 9 9 9 9 7 6 6 5 4 4 6 7 7 6 5 3 2 2 1 1 0 1 2 2 2 3 3 2 2 2 3 5 5
12 12 12 12 10 8 8 8 8 8 8 9 10 10 7 5 4 5 6 4 4 6 7 6 5 3 2 2 2 1 1 0 1 2 1 2 2 3 4 3 1 2 4
11 11 11 9 7 5 6 7 8 7 7 8 8 9 9 8 8 7 7 5 4 3 5 6 5 4 3 2 2 1 1 0 1 1 2 2 2 2 3 4 2 1 2
9 9 9 8 8 8 7 7 8 7 6 7 7 8 9 10 10 9 8 7 4 3 3 3 4 3 3 3 2 1 1 0 0 1 1 1 1 1 2 2 2 1 1
7 8 9 9 8 8 8 7 7 6 6 6 6 6 7 6 6 7 7 7 5 4 4 4 4 4 3 3 2 1 0 1 0 0 0 0 1 1 1 1 1 2 1
5 6 7 7 8 8 8 8 8 7 6 7 7 6 6 6 6 6 6 5 5 5 5 5 4 4 3 2 2 1 1 1 1 1 1 1 1 1 1 1 1 2 3
2 4 5 6 6 6 5 6 6 7 6 6 7 6 6 6 7 7 7 6 6 5 6 5 4 3 3 2 2 1 1 1 1 1 2 2 1 1 1 1 1 1 2
3 2 3 4 4 5 5 6 6 6 6 7 6 7 6 6 7 6 7 6 5 6 6 5 4 4 3 2 2 1 1 2 2 2 2 2 2 2 2 2 1 1 0
2 1 2 2 3 5 5 6 6 7 7 7 7 7 7 7 7 7 6 7 6 5 5 5 4 3 3 2 2 2 2 2 2 2 3 2 2 3 2 2 2 1 1
1 1 0 2 4 5 5 6 6 7 7 7 8 8 7 7 7 7 7 7 7 6 5 5 4 4 3 2 2 2 3 3 3 3 3 3 3 3 2 2 2 2 2
2 2 2 3 4 4 5 6 6 7 8 8 8 8 7 7 7 7 7 6 6 6 5 5 4 4 3 3 3 3 4 4 4 4 3 3 3 3 2 2 2 2 2
3 3 4 4 4 5 5 6 6 7 8 9 8 8 7 7 7 7 7 6 6 6 5 5 5 4 3 3 4 4 5 5 5 4 3 3 3 4 3 2 1 2 2
5 5 5 5 5 6 6 6 7 8 8 9 9 8 8 8 8 8 7 7 6 5 5 6 5 4 3 5 7 6 5 5 5 4 3 2 3 3 3 4 4 3 3
5 5 5 5 6 6 6 8 8 7 8 9 9 9 9 9 8 8 8 7 6 5 5 6 6 5 5 6 7 8 5 5 5 4 3 2 2 3 3 4 5 4 4
5 6 6 6 5 4 5 6 6 7 9 9 9 9 10 9 8 8 8 7 5 6 5 6 6 5 6 8 7 8 5 4 4 4 4 4 2 2 3 3 3 3 3
5 5 6 6 5 4 4 4 5 7 8 9 10 10 10 10 10 9 8 6 6 5 5 5 6 6 6 9 9 8 5 4 4 4 4 5 4 5 6 4 3 1 1
4 5 5 4 4 4 2 3 5 7 9 10 9 9 10 10 11 10 7 5 5 6 6 5 6 7 6 9 10 10 4 4 4 3 4 7 7 7 6 5 4 3 2
5 5 4 4 5 4 1 3 4 7 7 6 6 8 9 9 9 8 6 6 6 6 6 6 5 6 8 10 12 12 6 5 5 4 4 5 9 9 8 6 5 6 4
6 5 4 5 5 3 1 2 4 4 3 5 7 7 8 8 7 8 7 7 7 7 6 6 5 5 6 9 11 14 12 10 6 5 5 6 10 10 9 6 7 8 5
6 5 4 5 5 4 1 2 3 2 3 5 6 6 7 7 7 8 8 7 7 7 6 6 7 6 5 8 15 16 15 15 8 6 9 10 12 10 7 9 9 7 4
6 5 5 5 5 4 3 2 2 2 3 4 5 5 6 6 6 6 7 7 8 8 7 8 8 6 6 6 7 7 8 12 9 7 9 12 12 9 8 7 6 4 4
5 5 5 6 6 4 4 3 2 1 3 4 4 5 5 6 7 7 7 8 8 9 9 8 7 7 8 10 14 10 8 7 7 5 4 4 4 5 5 4 5 4 4
6 6 5 5 5 4 4 3 2 2 3 3 4 4 5 5 5 6 6 10 11 13 15 13 10 9 12 11 14 17 17 17 15 9 5 7 7 8 8 7 6 6 7
Wind_Direction
236 225 203 185 177 179 179 179 175 176 171 172 177 175 178 175 167 163 165 163 160 159 149 141 135 126 154 201 231 236 258 269 273 299 308 303 295 300 301 297 297 343 97
252 232 216 194 186 185 186 186 186 181 180 180 180 178 167 165 165 149 144 152 150 148 144 135 134 122 137 123 75 141 218 264 236 189 307 320 331 340 358 9 35 43 69
225 223 215 208 195 193 192 190 188 183 181 171 155 135 120 112 141 155 146 144 144 137 130 127 120 108 123 132 98 86 179 261 284 202 202 239 268 305 333 21 35 45 56
221 217 213 210 204 200 194 191 185 181 177 168 167 169 176 185 189 170 157 139 130 124 120 115 111 105 109 112 91 77 145 207 255 279 243 227 220 246 297 343 32 43 47
218 213 213 211 208 197 187 184 178 178 176 177 180 179 180 178 149 138 145 138 118 115 115 113 109 104 98 94 78 68 53 179 221 236 261 263 250 228 229 257 295 41 43
217 216 214 205 197 182 174 170 169 175 174 174 176 178 173 164 155 158 160 151 132 110 109 110 107 101 96 87 75 65 64 43 242 242 240 237 240 231 224 237 234 202 81
207 206 199 192 188 180 174 170 166 168 169 169 174 176 172 168 170 169 167 159 152 148 143 122 117 107 102 91 75 63 31 348 275 252 254 264 266 270 244 239 236 200 154
197 195 192 189 186 180 171 168 168 167 162 160 163 162 160 159 162 163 159 161 160 153 145 130 121 111 104 92 76 71 18 41 7 342 2 54 16 351 284 243 217 218 198
190 191 184 180 182 181 179 175 169 167 164 157 146 141 145 144 145 141 135 136 136 135 131 124 120 111 102 94 95 90 64 88 74 66 71 77 50 31 7 328 242 211 215
148 163 174 177 181 182 173 166 167 168 163 154 149 144 140 136 134 132 132 132 130 126 130 128 125 117 101 86 90 93 105 108 87 87 92 83 65 53 35 10 333 261 210
137 162 176 178 171 165 166 170 170 162 159 154 142 136 135 133 131 132 135 135 131 133 134 133 129 122 107 98 108 128 125 121 102 92 104 87 71 62 31 29 40 38 119
85 124 152 153 167 179 182 183 179 173 167 155 145 142 139 138 137 137 140 136 132 130 131 131 132 131 122 119 137 151 137 135 124 109 107 97 87 71 47 46 44 37 26
25 37 174 199 202 200 196 191 185 177 163 152 148 148 150 151 150 147 143 138 135 134 134 138 144 143 140 135 136 139 129 123 121 119 119 110 104 84 60 57 49 28 35
314 291 256 243 234 219 204 195 191 177 164 158 158 162 164 163 158 151 146 145 144 146 150 152 150 150 148 144 140 135 126 116 108 107 110 108 109 113 99 74 54 58 66
308 289 270 254 241 231 217 202 193 181 170 167 171 175 164 157 153 151 150 148 150 155 154 148 148 150 153 163 157 149 145 137 123 106 98 105 118 127 130 119 106 103 100
307 294 279 265 250 235 222 208 201 190 176 177 181 171 162 160 161 160 158 156 156 155 154 159 163 168 177 182 177 163 151 149 145 138 118 99 78 93 91 95 105 127 136
313 305 295 277 259 244 225 213 207 190 182 184 180 173 169 169 169 165 163 167 167 164 167 172 172 178 191 193 188 177 156 155 159 161 162 160 142 95 67 71 63 55 79
312 315 305 293 280 262 242 220 198 187 188 187 184 178 174 173 168 168 174 174 168 173 178 183 180 181 199 200 193 180 154 159 171 177 177 172 175 182 155 121 86 51 39
299 294 293 285 281 276 256 211 196 189 190 194 191 185 178 175 175 180 181 175 172 179 183 182 181 185 201 202 196 177 154 172 189 198 195 190 197 215 186 156 150 109 12
309 309 313 316 311 297 270 207 202 196 204 203 195 183 178 179 184 185 177 171 174 183 181 188 191 192 202 209 204 189 167 182 198 210 218 214 209 219 201 173 176 192 216
317 322 331 335 321 312 284 225 217 219 218 192 174 175 180 182 180 174 170 170 172 176 186 195 202 202 208 216 214 204 182 190 196 205 214 227 224 223 219 201 193 214 203
325 328 332 330 330 337 345 256 250 242 191 172 176 180 180 178 173 170 173 173 176 185 195 204 213 217 217 220 224 219 211 204 197 207 208 219 227 227 228 220 215 223 201
321 322 321 321 328 338 341 269 274 246 187 177 183 181 176 175 170 174 177 180 188 198 203 208 219 223 216 222 226 227 224 219 208 212 216 220 226 228 232 233 230 223 190
314 317 316 314 314 317 316 276 268 230 183 185 183 174 173 176 177 181 184 192 198 205 209 213 221 221 215 215 218 220 229 227 222 216 223 225 228 225 223 233 238 211 196
304 306 303 300 298 304 301 293 273 206 193 190 184 181 183 184 189 196 201 205 211 209 209 214 212 211 222 224 214 206 212 210 210 190 194 203 209 214 213 218 222 218 218
299 302 299 296 298 299 298 300 289 231 206 202 196 195 194 194 196 204 220 224 224 228 229 226 219 223 230 234 224 221 222 222 217 208 209 215 218 222 223 225 225 221 221
Height
1502 1505 1507 1509 1512 1515 1518 1520 1523 1526 1529 1532 1534 1536 1539 1542 1544 1546 1547 1549 1550 1550 1551 1551 1552 1552 1552 1552 1552 1551 1551 1550 1549 1548 1546 1545 1544 1543 1542 1541 1540 1540 1540
1500 1502 1505 1507 1509 1511 1514 1517 1520 1523 1526 1528 1531 1534 1536 1539 1541 1543 1544 1545 1547 1548 1548 1549 1549 1549 1549 1549 1549 1548 1547 1546 1546 1545 1543 1541 1540 1539 1539 1538 1538 1537 1537
1498 1499 1501 1504 1506 1509 1511 1513 1516 1519 1522 1525 1528 1531 1533 1535 1537 1539 1540 1542 1544 1545 1545 1546 1546 1546 1545 1545 1545 1544 1543 1542 1542 1541 1541 1539 1537 1536 1536 1536 1535 1534 1534
1494 1496 1498 1501 1503 1506 1508 1511 1514 1516 1519 1521 1524 1526 1528 1530 1532 1535 1537 1538 1540 1541 1542 1542 1542 1542 1541 1541 1540 1540 1539 1538 1537 1537 1536 1536 1535 1535 1533 1533 1532 1532 1531
1490 1492 1495 1497 1500 1503 1505 1508 1510 1512 1515 1518 1520 1523 1525 1528 1530 1532 1533 1535 1536 1537 1537 1538 1538 1538 1537 1536 1536 1535 1534 1533 1532 1532 1531 1531 1531 1530 1530 1529 1529 1528 1528
1485 1488 1491 1494 1497 1499 1502 1504 1506 1509 1512 1514 1517 1519 1521 1524 1526 1528 1529 1531 1532 1533 1533 1533 1533 1533 1533 1532 1531 1530 1530 1529 1528 1527 1526 1526 1526 1525 1525 1525 1525 1524 1524
1481 1484 1487 1490 1492 1495 1498 1500 1503 1505 1508 1510 1513 1515 1517 1519 1522 1524 1525 1527 1528 1529 1529 1530 1529 1529 1528 1527 1527 1526 1525 1524 1523 1522 1521 1521 1520 1520 1520 1521 1521 1520 1520
1477 1480 1483 1486 1489 1492 1494 1497 1499 1502 1504 1506 1509 1511 1513 1516 1518 1520 1521 1523 1524 1525 1525 1525 1525 1524 1524 1523 1522 1521 1520 1519 1518 1517 1516 1516 1515 1515 1515 1516 1517 1516 1516
1475 1478 1481 1483 1486 1489 1491 1494 1496 1498 1500 1502 1505 1507 1509 1512 1514 1516 1517 1518 1520 1521 1521 1521 1520 1520 1519 1518 1517 1516 1515 1514 1513 1512 1512 1511 1511 1510 1510 1511 1511 1513 1512
1475 1477 1479 1481 1484 1487 1489 1491 1493 1495 1497 1499 1501 1503 1506 1508 1510 1512 1513 1514 1516 1516 1516 1516 1516 1515 1515 1514 1513 1512 1510 1510 1509 1508 1507 1507 1506 1506 1506 1506 1506 1507 1508
1475 1476 1478 1480 1482 1484 1486 1489 1490 1492 1493 1495 1497 1499 1502 1504 1506 1508 1509 1510 1511 1512 1512 1512 1512 1511 1510 1509 1509 1507 1506 1505 1505 1504 1503 1503 1502 1502 1502 1502 1502 1502 1503
1476 1477 1478 1479 1480 1482 1484 1485 1487 1488 1490 1492 1494 1496 1498 1500 1502 1504 1505 1507 1508 1508 1508 1508 1507 1507 1506 1505 1504 1503 1502 1501 1501 1500 1500 1499 1499 1498 1498 1498 1498 1498 1499
1476 1477 1477 1478 1479 1480 1481 1482 1483 1485 1486 1488 1490 1492 1495 1497 1498 1500 1502 1503 1504 1504 1504 1504 1503 1503 1502 1501 1500 1499 1498 1498 1497 1497 1497 1496 1496 1495 1495 1495 1495 1495 1495
1476 1476 1477 1477 1477 1478 1478 1479 1480 1481 1483 1484 1486 1489 1491 1493 1495 1496 1498 1499 1500 1500 1500 1500 1499 1499 1498 1497 1496 1496 1495 1494 1494 1494 1494 1493 1493 1493 1493 1492 1492 1492 1493
1476 1475 1475 1475 1475 1475 1475 1475 1476 1477 1479 1481 1483 1485 1487 1489 1491 1493 1494 1495 1496 1496 1496 1496 1495 1494 1494 1493 1493 1492 1492 1491 1491 1491 1491 1491 1490 1490 1490 1490 1490 1490 1491
1475 1474 1473 1473 1472 1472 1472 1472 1472 1474 1475 1477 1479 1481 1484 1486 1487 1489 1490 1491 1492 1492 1492 1492 1491 1491 1490 1490 1489 1489 1488 1488 1488 1488 1488 1488 1488 1488 1488 1488 1488 1489 1489
1473 1472 1471 1470 1469 1468 1468 1468 1469 1470 1471 1473 1475 1477 1480 1482 1484 1485 1486 1487 1488 1488 1488 1488 1487 1487 1487 1486 1486 1485 1486 1486 1486 1486 1486 1486 1486 1486 1487 1487 1487 1487 1487
1471 1469 1468 1467 1466 1465 1465 1465 1465 1466 1467 1469 1471 1474 1476 1478 1480 1481 1482 1483 1484 1484 1484 1484 1484 1484 1483 1483 1483 1483 1483 1483 1483 1483 1484 1484 1484 1485 1485 1485 1485 1485 1485
1469 1467 1466 1464 1463 1462 1461 1461 1461 1462 1463 1465 1467 1469 1472 1474 1475 1477 1478 1479 1480 1480 1480 1480 1480 1480 1480 1480 1480 1480 1480 1480 1481 1481 1481 1482 1482 1483 1483 1483 1483 1483 1483
1467 1465 1463 1461 1460 1459 1458 1458 1458 1459 1460 1461 1464 1466 1468 1469 1471 1473 1474 1475 1475 1476 1476 1476 1476 1477 1477 1477 1477 1477 1477 1478 1478 1478 1479 1480 1480 1480 1480 1481 1481 1481 1481
1464 1462 1460 1459 1457 1456 1455 1454 1454 1455 1457 1458 1460 1461 1463 1465 1466 1468 1469 1470 1471 1471 1471 1472 1472 1473 1473 1473 1474 1474 1474 1475 1475 1476 1476 1477 1477 1478 1478 1478 1479 1479 1479
1462 1460 1458 1456 1455 1453 1452 1451 1452 1452 1453 1454 1455 1457 1458 1460 1461 1462 1463 1465 1465 1466 1467 1467 1468 1468 1469 1469 1470 1470 1471 1471 1472 1473 1474 1474 1474 1475 1475 1476 1476 1476 1476
1460 1458 1456 1454 1453 1451 1450 1449 1449 1449 1449 1450 1451 1452 1453 1454 1456 1457 1458 1459 1460 1461 1461 1462 1463 1464 1464 1465 1466 1466 1467 1468 1468 1469 1470 1470 1471 1471 1472 1472 1473 1473 1473
1458 1456 1454 1452 1451 1449 1448 1447 1446 1446 1445 1446 1446 1447 1448 1449 1450 1452 1453 1454 1455 1456 1456 1457 1458 1459 1460 1460 1461 1462 1463 1464 1464 1465 1466 1467 1467 1467 1468 1469 1469 1469 1469
1454 1452 1451 1449 1448 1446 1445 1444 1443 1442 1442 1442 1442 1443 1444 1445 1446 1447 1448 1449 1450 1451 1452 1452 1453 1454 1455 1456 1457 1457 1458 1459 1460 1461 1461 1462 1462 1463 1463 1464 1464 1465 1465
1450 1449 1447 1445 1444 1443 1441 1441 1440 1439 1439 1438 1438 1439 1439 1440 1441 1442 1443 1444 1445 1446 1446 1447 1448 1448 1450 1451 1451 1452 1453 1454 1455 1456 1455 1456 1457 1458 1458 1459 1459 1460 1460